Retour au catalogue

STARLINK-2039

ActifCommunicationsVLEO
NORAD 47655·PAYLOAD·🇺🇸 United States

Lancé Feb 16, 2021 depuis Cape Canaveral Space Force Station

Loading…

Prochains Passages (prochaines 24 heures)

TLE

FraisSource: CelesTrak SupGP

Époque: Sep 14, 2026, 20:43 UTC

1 47655C 21012AM  26257.86368056  .00068573  00000+0  19606-2 0  2576
2 47655  53.1581 264.0017 0005779  41.2186 265.7910 15.35369320    10

Suivez STARLINK-2039 en temps réel avec AllMySat

Download on the App Store